Location: Waco, TX
(31.5480°N, 97.1670°W)
Time: 20:19:18
(UTC-05:00)

ISS - Pass Details

Date: 17 September 2018
Orbit: 403 x 408 km, 51.6° (Epoch: 26 September)

Event Time Altitude Azimuth Distance (km) Brightness Sun altitude
Rises 22:11:30 0° 234° (SW) 2,319 - -33.6°
Reaches altitude 10° 22:13:37 10° 239° (WSW) 1,461 - -34.0°
Maximum altitude 22:16:49 52° 317° (NW) 511 - -34.6°
Drops below altitude 10° 22:20:03 10° 35° (NE) 1,466 - -35.2°
Sets 22:22:10 0° 41° (NE) 2,328 - -35.6°
